sat.trackr.live / text

‹ back to catalog

STARLINK-6159

NORAD 56381 · 2023-061H

PAYLOAD ACTIVE UNKNOWN

§ Identity

Operator
Country
US
Launch date
2023-05-04
Launch site
AFETR
Launch vehicle
Mass (kg)
RCS (m²)

Purposes: comms

External: N2YO · Heavens-Above · Gunter

§ Orbital elements

Epoch: 2026-05-24T23:30:19.596672Z

Period
94.27 min
Inclination
43.0012°
Eccentricity
0.0000910
Mean motion
15.27584606 rev/d
Perigee alt
482.4 km
Apogee alt
483.7 km
Semi-major
6,861.2 km
B*
-1.6208e-5
RAAN
127.3569°
Arg perigee
261.4206°
Mean anomaly
98.6543°
Rev number
16,841

§ Raw data

STARLINK-61591 56381U 23061H   26144.97939348 -.00000708  00000+0 -16208-4 0  99912 56381  43.0012 127.3569 0000910 261.4206  98.6543 15.27584606168418

JSON: /api/v1/satellites/56381 · /tle

For live sub-satellite position, see the globe view (requires WebGL).

§ Visibility from observer

Set your observer location to see the next 7 days of passes ≥ 10°. The values pass through the URL so the page stays shareable.

No JS? Fill the form by hand. The geolocation button needs JavaScript.